Regional Weather Roundup
Issued by NWS

Home | Current Version | Previous Version | Text Only | Print | Product List | Glossary On
Versions: 1 2 3 4 5 6 7 8 9 10 11 12 13 14 15 16 17 18 19 20 21 22 23 24 25 26 27 28 29 30 31 32 33 34 35 36 37 38 39 40 41 42 43 44 45 46 47 48 49 50
000
ASUS45 KBOI 272310
RWRID

IDAHO REGIONAL WEATHER ROUNDUP
NATIONAL WEATHER SERVICE BOISE ID
500 PM MDT FRI MAY 27 2016

NOTE: "FAIR" INDICATES FEW OR NO CLOUDS BELOW 12000 FEET
WITH NO SIGNIFICANT WEATHER AND/OR OBSTRUCTIONS TO VISIBILITY

IDZ012-014-280000-
SOUTHWEST IDAHO


CITY           SKY/WX    TMP DP  RH WIND       PRES   REMARKS
BOISE          SUNNY     68  30  24 N15G24    29.93F
CALDWELL       SUNNY     70  30  22 NW16G22   29.92F
MOUNTAIN HOME  SUNNY     72  39  30 NW21G26   29.91F
$$

IDZ016-017-280000-
SOUTHCENTRAL IDAHO


CITY           SKY/WX    TMP DP  RH WIND       PRES   REMARKS
BURLEY         PTSUNNY   63  35  35 MISG      29.92R
JEROME         SUNNY     66  32  28 W14G29    29.92F
TWIN FALLS     MOSUNNY   65  34  31 NW14G24   29.93F
$$

IDZ019>023-280000-
SOUTHEAST IDAHO


CITY           SKY/WX    TMP DP  RH WIND       PRES   REMARKS
IDAHO FALLS    PTSUNNY   65  35  33 SW21G29   29.88S
POCATELLO      MOSUNNY   69  31  24 SW18G24   29.90F
REXBURG        CLOUDY    65  35  33 SW12      29.87F
$$

IDZ006-010-011-018-031-032-280000-
CENTRAL IDAHO MOUNTAINS


CITY           SKY/WX    TMP DP  RH WIND       PRES   REMARKS
MCCALL         MOSUNNY   54  32  43 NW12G21   29.95S
HAILEY         MOSUNNY   61  30  31 W9        29.91F
STANLEY          N/A     55  25  31 VRB5      29.95S
SALMON         CLOUDY    54  43  66 NW3       29.91R
CHALLIS        PTSUNNY   64  24  21 W13       29.84R
$$

IDZ002-004-006-007-026-280000-
NORTHERN IDAHO


CITY           SKY/WX    TMP DP  RH WIND       PRES   REMARKS
LEWISTON       MOSUNNY   65  35  33 VRB5      29.99F
LOWELL           N/A     60  40  47 VRB3      30.01S
COEUR D`ALENE  PTSUNNY   61  36  39 SW17      29.97S
MULLAN PASS    PTSUNNY   43  27  53 VRB6      30.00S
$$



USA.gov is the U.S. government's official web portal to all federal, state and local government web resources and services.